Wind_Speed
38 40 43 45 45 48 50 55 55 56 56 58 57 52 49 52 53 50 49 49 48 48 50 55 53 54 55 57 57 55 56 62 62 67 72 73 69 67 60 58 60 60 57
43 43 43 47 49 50 55 57 56 58 59 59 58 52 52 54 49 47 49 49 49 52 54 55 57 60 57 60 61 60 58 60 67 67 68 76 71 76 67 65 60 60 58
44 44 45 47 49 53 56 57 58 60 59 61 60 56 55 51 49 48 48 49 54 57 62 64 64 62 62 62 61 62 62 61 65 70 69 69 74 72 78 71 66 62 58
48 50 50 51 53 55 57 58 61 61 60 63 64 60 57 53 52 49 51 54 57 57 57 61 66 67 63 63 63 62 65 66 66 70 72 71 68 70 73 70 67 60 56
53 52 52 52 56 56 56 59 62 61 61 64 65 65 61 54 52 52 55 62 60 59 60 61 63 67 66 66 66 63 65 68 69 68 75 75 69 71 68 68 72 72 68
55 50 52 53 55 57 59 60 64 62 62 65 65 63 63 58 56 57 60 62 60 59 60 60 62 64 66 65 67 67 67 68 68 68 72 74 77 72 72 68 63 72 65
49 53 57 56 59 60 61 60 60 62 63 66 67 65 64 61 60 61 67 64 63 64 65 65 66 68 68 68 68 73 72 72 70 68 68 68 73 79 77 71 71 66 58
57 55 59 59 62 58 63 62 62 61 65 67 68 66 64 63 63 67 67 67 70 70 66 57 54 54 60 67 68 71 77 77 78 74 74 71 70 71 74 78 75 69 66
63 61 65 67 66 66 64 64 62 64 67 70 69 67 66 66 68 71 69 68 62 58 55 52 50 47 49 56 62 67 75 84 84 79 77 74 73 73 73 71 77 74 72
61 62 64 70 70 68 68 65 67 68 68 71 70 69 69 69 72 73 73 65 60 61 58 55 52 51 49 50 54 55 60 71 85 87 82 77 78 77 74 78 74 74 76
69 67 65 69 75 66 66 66 68 69 67 70 72 70 70 71 75 72 72 65 62 57 52 50 49 49 51 50 52 54 56 59 65 78 87 80 79 82 81 76 78 77 77
66 68 60 64 68 68 68 70 72 69 69 72 72 72 71 73 75 70 64 66 62 54 46 46 46 45 47 48 50 51 54 57 57 61 71 78 79 81 81 82 79 79 78
70 69 69 55 68 70 69 71 74 70 69 73 71 71 72 76 74 71 69 63 55 48 45 44 42 44 42 44 47 51 53 55 59 60 60 63 68 69 70 72 73 74 78
69 66 73 64 68 74 69 70 73 72 73 72 71 71 73 75 73 70 63 55 48 47 45 42 43 40 41 40 42 45 51 53 54 55 60 63 67 67 63 66 66 68 68
61 66 73 72 69 75 74 70 71 73 71 70 70 73 76 73 70 67 60 55 50 43 39 39 39 38 39 41 43 43 45 50 51 51 55 59 63 62 63 64 66 65 64
65 68 74 75 70 71 74 74 72 71 68 69 69 71 76 74 68 64 56 52 44 37 31 29 29 27 33 37 41 42 45 49 50 52 53 60 59 59 59 59 62 65 63
63 70 74 71 68 71 74 76 72 71 69 69 69 73 72 73 65 60 53 47 40 31 27 22 23 25 29 31 34 38 44 48 51 54 55 60 59 61 60 59 59 60 61
64 67 68 70 65 71 73 74 71 70 69 67 70 73 72 68 62 56 50 44 34 30 24 22 27 31 30 28 30 33 36 42 48 51 55 59 59 61 61 63 60 60 60
69 69 71 70 65 70 71 70 71 68 67 68 72 70 69 65 59 53 45 37 33 28 30 32 33 34 37 34 36 37 37 39 41 47 52 55 59 61 60 60 62 60 62
73 69 70 71 70 70 70 69 67 65 64 69 69 70 64 58 55 50 43 40 36 36 39 34 41 43 46 44 43 38 40 40 42 44 46 51 54 58 60 61 61 62 59
72 70 70 73 72 71 67 67 62 61 64 68 68 65 62 55 51 47 42 40 37 40 39 40 43 43 44 43 40 36 35 35 38 41 46 46 48 52 55 59 60 57 57
69 71 72 72 71 67 64 58 56 59 64 65 64 59 59 52 46 42 42 35 36 31 33 31 34 32 30 27 27 30 30 30 33 34 38 42 45 45 47 51 53 53 52
66 68 69 67 64 59 55 53 54 59 60 64 60 54 53 46 40 38 34 33 33 25 32 32 26 21 20 19 20 18 17 18 23 27 31 36 38 43 43 43 46 50 52
63 65 65 62 57 53 50 50 53 56 60 58 56 50 44 40 36 39 39 34 34 30 25 21 18 17 14 13 15 14 13 13 12 15 20 23 28 35 40 35 37 43 51
60 59 57 52 48 46 45 49 52 56 56 53 48 43 35 32 39 34 37 31 27 22 18 16 12 10 8 9 10 10 9 11 10 12 13 19 24 28 27 25 34 34 41
54 52 47 43 41 41 43 48 52 53 51 47 41 36 32 34 28 34 25 23 20 15 10 7 5 4 3 3 3 3 5 8 6 12 15 18 23 26 27 28 29 34 41
Wind_Direction
306 309 313 308 308 310 308 308 308 310 309 309 309 305 300 300 298 294 290 288 284 276 265 261 255 255 254 252 253 253 250 245 245 242 240 239 239 240 237 240 242 241 235
306 304 306 307 305 308 307 306 306 307 305 305 307 302 302 302 298 294 291 285 284 284 279 266 259 259 258 253 252 250 250 247 243 244 242 241 242 242 240 238 239 243 243
303 301 304 304 303 306 306 304 303 305 304 306 308 306 303 298 294 295 291 286 283 279 279 275 268 262 258 257 254 252 248 246 244 244 241 242 241 240 240 238 238 236 241
300 303 300 303 304 304 301 300 301 303 303 303 308 305 301 296 294 296 291 290 288 283 279 275 269 264 259 255 253 251 247 243 242 240 242 241 239 241 241 241 240 238 238
296 299 296 301 305 302 302 299 301 301 303 302 305 305 301 298 293 295 295 298 294 291 286 279 270 266 259 255 251 249 246 242 240 239 238 241 241 241 239 239 240 239 238
294 295 296 297 302 303 301 298 299 300 301 302 303 304 301 299 295 295 297 298 295 291 286 279 273 264 261 257 252 246 240 236 237 237 237 236 239 242 241 240 239 239 239
291 291 291 294 298 300 301 301 299 299 301 303 305 304 301 299 299 301 302 302 300 294 289 281 271 265 260 257 252 241 239 234 232 233 235 236 237 239 241 240 240 238 237
288 291 296 298 300 302 301 302 300 301 303 303 304 305 303 301 303 305 307 306 301 294 288 282 273 264 261 252 249 245 240 236 236 235 234 234 235 237 239 240 240 239 237
289 291 296 298 300 303 303 305 304 303 304 305 306 305 306 306 308 311 311 307 300 294 288 283 279 272 264 254 248 246 242 238 237 237 238 237 238 238 238 238 238 240 239
288 294 298 299 299 301 302 305 304 304 303 305 307 307 308 310 312 315 310 305 300 297 291 284 279 273 264 254 249 247 244 241 238 238 238 240 240 242 241 240 240 240 241
288 288 294 297 300 302 303 304 305 304 303 306 307 309 310 312 315 314 310 307 302 297 289 284 275 267 262 255 249 249 247 244 241 239 239 239 242 244 243 243 240 240 238
295 295 297 295 297 298 301 304 305 304 303 306 308 309 313 314 315 313 309 306 301 296 289 285 277 269 261 254 249 246 246 246 244 241 239 239 241 243 243 242 243 241 240
294 295 296 298 297 298 301 302 304 304 305 307 308 311 314 316 315 314 310 305 300 294 291 286 278 270 263 254 249 246 246 244 242 238 240 239 240 238 237 237 237 238 239
291 287 295 300 298 298 301 303 305 306 306 306 310 313 313 316 314 310 306 300 294 292 288 281 276 271 265 259 251 247 245 243 241 239 238 239 238 236 235 233 236 236 236
289 287 294 300 300 298 301 302 301 303 307 309 312 314 315 314 312 307 307 303 299 293 286 282 273 267 265 262 256 249 243 242 243 240 238 235 233 235 235 233 231 232 235
290 291 294 299 299 297 299 300 302 304 306 308 313 313 314 313 311 308 307 305 303 299 293 284 269 268 266 262 258 255 249 242 239 240 237 236 235 234 233 234 232 228 231
290 291 295 296 295 294 295 298 302 303 307 309 313 313 314 312 310 308 309 307 306 305 300 287 272 274 273 265 256 252 251 248 241 238 237 237 235 236 234 233 233 228 228
290 287 288 289 291 291 293 298 302 304 307 312 312 314 313 310 309 309 309 307 307 307 296 278 272 276 272 269 264 261 254 249 246 241 237 237 235 234 231 231 231 231 229
290 287 286 287 290 290 294 298 302 304 308 311 312 313 310 310 310 309 310 311 310 301 288 277 266 265 266 264 271 271 261 253 249 244 239 237 236 234 233 230 230 230 230
285 284 285 287 289 291 294 298 301 305 309 310 312 311 308 310 310 311 314 314 306 296 291 273 258 263 269 270 270 272 264 257 250 245 241 237 236 236 233 230 230 229 229
282 282 285 287 290 291 295 297 302 307 306 310 310 309 308 311 309 312 314 308 298 296 292 283 276 273 270 270 268 263 257 255 249 244 241 237 237 236 233 231 228 229 227
280 283 284 287 289 292 295 298 303 305 306 307 309 309 306 309 311 313 312 305 304 298 292 290 292 287 281 275 269 264 263 253 246 241 241 237 235 235 232 231 226 223 226
281 282 284 287 290 292 295 300 304 303 306 307 306 308 306 312 315 311 312 305 308 299 305 300 299 296 288 282 277 266 260 249 245 241 240 237 233 231 230 229 222 219 219
280 281 283 287 289 291 295 302 301 303 305 305 307 305 311 317 316 315 313 312 311 314 313 311 309 304 294 281 271 264 259 254 236 229 234 230 227 225 228 228 224 220 219
278 280 283 287 287 292 300 299 300 303 303 305 307 308 313 311 311 308 312 317 319 324 320 321 314 298 282 267 265 262 247 241 229 217 212 216 208 208 207 208 223 213 212
277 279 283 283 290 298 298 296 301 302 302 305 305 311 313 314 314 315 317 324 325 336 345 351 8 357 60 342 307 263 223 231 193 182 198 199 201 190 182 194 200 203 201
Height
10940 10939 10938 10936 10933 10930 10924 10920 10917 10914 10909 10905 10902 10898 10894 10889 10886 10883 10879 10875 10873 10874 10875 10876 10876 10875 10875 10875 10878 10881 10884 10887 10891 10895 10899 10905 10910 10912 10917 10921 10922 10927 10930
10935 10933 10933 10931 10928 10924 10917 10912 10909 10906 10902 10898 10895 10890 10884 10878 10875 10872 10870 10867 10864 10861 10861 10863 10864 10863 10863 10865 10865 10868 10871 10874 10878 10882 10886 10892 10896 10902 10906 10911 10914 10919 10925
10928 10928 10926 10924 10920 10916 10910 10905 10900 10897 10892 10888 10884 10880 10875 10870 10866 10863 10861 10858 10855 10852 10848 10847 10848 10851 10851 10851 10852 10855 10858 10861 10864 10868 10873 10879 10883 10889 10894 10899 10904 10909 10914
10920 10921 10918 10917 10913 10908 10901 10896 10892 10888 10884 10880 10875 10869 10865 10861 10856 10852 10848 10845 10842 10839 10836 10833 10830 10832 10835 10836 10838 10840 10842 10846 10850 10854 10861 10866 10870 10876 10883 10890 10894 10902 10905
10912 10912 10910 10908 10905 10900 10895 10889 10885 10879 10875 10871 10866 10858 10853 10850 10846 10840 10836 10831 10826 10823 10819 10817 10816 10814 10817 10820 10823 10825 10827 10830 10835 10840 10848 10853 10858 10863 10869 10877 10882 10890 10897
10905 10900 10900 10900 10898 10893 10887 10882 10876 10870 10866 10860 10856 10849 10842 10837 10833 10828 10823 10817 10811 10807 10803 10801 10798 10799 10800 10804 10807 10809 10812 10816 10820 10827 10834 10840 10845 10849 10854 10864 10872 10878 10886
10899 10891 10889 10890 10890 10886 10878 10872 10866 10860 10855 10849 10843 10837 10831 10825 10820 10815 10807 10799 10793 10789 10786 10784 10783 10782 10783 10786 10790 10794 10797 10801 10806 10812 10818 10826 10832 10836 10840 10848 10859 10866 10874
10888 10889 10879 10880 10879 10876 10868 10862 10856 10849 10844 10837 10830 10824 10818 10812 10806 10800 10791 10781 10775 10770 10766 10765 10764 10764 10763 10766 10770 10776 10783 10786 10792 10799 10805 10810 10820 10820 10827 10836 10846 10852 10862
10873 10881 10871 10867 10867 10863 10856 10851 10845 10839 10831 10825 10818 10812 10805 10797 10790 10781 10771 10765 10759 10754 10750 10749 10749 10749 10749 10749 10753 10757 10764 10772 10778 10786 10792 10798 10806 10809 10814 10823 10831 10839 10849
10867 10864 10867 10852 10855 10851 10845 10840 10835 10829 10821 10813 10806 10798 10790 10783 10774 10764 10755 10749 10746 10739 10736 10735 10735 10735 10736 10736 10739 10743 10748 10754 10761 10769 10776 10784 10790 10794 10802 10809 10819 10829 10837
10851 10859 10866 10849 10838 10839 10834 10829 10824 10818 10810 10803 10795 10786 10778 10770 10760 10753 10739 10734 10731 10727 10722 10719 10720 10722 10722 10724 10726 10730 10734 10736 10745 10752 10761 10772 10775 10778 10788 10793 10803 10813 10822
10841 10837 10848 10845 10837 10828 10824 10817 10811 10806 10800 10791 10783 10774 10766 10758 10747 10740 10735 10724 10715 10712 10709 10706 10705 10707 10708 10710 10713 10717 10719 10725 10731 10736 10744 10755 10757 10760 10772 10778 10788 10798 10808
10836 10829 10826 10836 10822 10822 10816 10808 10797 10794 10788 10780 10771 10763 10754 10745 10734 10726 10718 10712 10705 10701 10697 10694 10694 10693 10694 10696 10700 10703 10707 10711 10716 10724 10732 10739 10742 10748 10757 10764 10772 10781 10790
10830 10823 10812 10821 10817 10803 10807 10801 10787 10781 10775 10767 10759 10751 10742 10734 10723 10715 10710 10705 10697 10689 10685 10684 10682 10681 10682 10684 10688 10692 10694 10699 10704 10713 10720 10722 10728 10735 10747 10752 10759 10767 10776
10820 10815 10806 10805 10805 10790 10788 10788 10782 10774 10765 10756 10749 10737 10728 10722 10714 10705 10695 10687 10683 10679 10676 10673 10671 10670 10671 10672 10674 10679 10683 10687 10693 10701 10704 10707 10717 10725 10733 10740 10748 10757 10765
10812 10805 10798 10796 10792 10779 10774 10772 10768 10763 10758 10748 10741 10732 10718 10709 10703 10694 10686 10677 10672 10668 10665 10664 10663 10662 10661 10663 10664 10666 10671 10677 10682 10688 10694 10696 10705 10713 10721 10729 10736 10745 10755
10802 10794 10789 10782 10780 10770 10764 10757 10756 10749 10742 10736 10728 10719 10710 10697 10691 10682 10675 10669 10662 10659 10656 10655 10656 10654 10653 10653 10654 10657 10660 10663 10671 10676 10682 10684 10696 10703 10709 10719 10727 10736 10745
10790 10782 10777 10770 10773 10761 10754 10747 10744 10738 10728 10725 10714 10706 10697 10689 10680 10671 10665 10660 10655 10652 10650 10650 10649 10646 10645 10646 10646 10648 10650 10653 10656 10663 10670 10674 10683 10688 10698 10706 10715 10724 10733
10779 10771 10763 10761 10765 10750 10745 10740 10733 10728 10719 10712 10705 10697 10687 10677 10669 10661 10656 10650 10647 10646 10645 10643 10639 10638 10636 10636 10636 10638 10640 10643 10646 10651 10656 10661 10669 10677 10685 10695 10704 10713 10722
10762 10760 10753 10749 10748 10743 10736 10732 10725 10718 10710 10701 10693 10685 10678 10670 10661 10653 10646 10642 10639 10637 10635 10631 10628 10625 10626 10625 10626 10626 10627 10630 10635 10639 10643 10650 10657 10664 10675 10683 10692 10701 10711
10749 10746 10743 10738 10735 10732 10728 10722 10716 10709 10700 10693 10684 10675 10666 10662 10654 10645 10640 10636 10631 10626 10622 10618 10615 10615 10615 10614 10613 10613 10614 10618 10621 10627 10631 10639 10646 10654 10663 10672 10682 10694 10703
10738 10735 10732 10728 10724 10722 10717 10713 10707 10699 10692 10683 10675 10667 10656 10653 10645 10638 10632 10626 10621 10616 10611 10608 10605 10603 10603 10603 10602 10603 10605 10609 10611 10616 10621 10629 10637 10645 10653 10663 10674 10684 10693
10726 10724 10720 10718 10714 10712 10707 10703 10698 10690 10684 10672 10666 10659 10649 10643 10637 10631 10625 10620 10614 10607 10604 10599 10597 10596 10595 10595 10595 10596 10597 10600 10604 10609 10613 10620 10627 10635 10644 10653 10664 10675 10686
10716 10713 10711 10708 10706 10703 10697 10693 10688 10681 10674 10666 10657 10650 10643 10634 10628 10622 10618 10612 10606 10601 10596 10593 10591 10590 10589 10590 10591 10592 10593 10594 10597 10602 10607 10613 10620 10627 10636 10647 10656 10668 10678
10704 10703 10702 10700 10697 10693 10689 10684 10678 10672 10663 10657 10649 10643 10638 10630 10624 10618 10612 10606 10601 10597 10593 10591 10589 10587 10587 10587 10587 10588 10589 10591 10595 10598 10604 10609 10614 10620 10630 10640 10651 10660 10671
10692 10693 10692 10690 10688 10685 10681 10676 10669 10663 10656 10647 10643 10637 10630 10626 10620 10613 10606 10603 10599 10595 10593 10591 10589 10587 10586 10584 10586 10588 10589 10589 10594 10598 10602 10605 10611 10617 10623 10633 10643 10655 10665